IW0RQH-13 Weather Reports


Display with metric or nautical units.
time (UTC)temp
F
wind
direction
speed
MPH
gust
MPH
rain 1hr
in
rain 24hr
in
rain mn
in
humidity
%
barometer
mb
20260507220005 63 71 7.0 14.0 0.00 0.06 0.00 65 1011.9
20260507215404 63 64 8.0 17.0 0.00 0.07 0.06 65 1011.5
20260507214503 63 63 11.0 19.0 0.00 0.07 0.06 65 1011.6
20260507213603 63 64 11.0 16.0 0.00 0.08 0.06 64 1011.7
20260507212703 63 62 11.0 19.0 0.00 0.09 0.06 65 1011.7
20260507211824 63 69 10.0 17.0 0.00 0.09 0.06 65 1012.0
20260507210903 63 65 11.0 17.0 0.00 0.09 0.06 66 1011.8
20260507210003 63 64 11.0 17.0 0.00 0.09 0.06 66 1011.6
20260507205405 63 68 11.0 16.0 0.00 0.09 0.06 66 1011.9
20260507204503 62 59 10.0 14.0 0.00 0.09 0.06 67 1011.7
20260507203603 62 62 10.0 16.0 0.00 0.09 0.06 66 1012.0
20260507202703 63 62 9.0 15.0 0.00 0.09 0.06 65 1012.0
20260507201803 63 54 11.0 15.0 0.00 0.09 0.06 64 1012.1
20260507200903 64 62 10.0 15.0 0.00 0.09 0.06 62 1011.8
20260507200005 64 62 10.0 16.0 0.00 0.09 0.06 61 1011.9
20260507195403 64 65 10.0 13.0 0.00 0.09 0.06 61 1012.0
20260507194505 63 70 9.0 14.0 0.00 0.09 0.06 62 1011.8
20260507193624 63 73 8.0 12.0 0.00 0.09 0.06 62 1011.9
20260507192705 63 71 8.0 11.0 0.00 0.09 0.06 62 1011.8
20260507191824 63 71 8.0 14.0 0.00 0.09 0.06 62 1011.6
20260507190924 63 70 9.0 13.0 0.00 0.09 0.06 62 1011.7
20260507190004 64 70 9.0 14.0 0.00 0.09 0.06 60 1011.5
20260507185403 64 65 7.0 11.0 0.00 0.09 0.06 60 1011.5
20260507184503 64 67 6.0 11.0 0.00 0.09 0.06 61 1011.6
20260507183603 64 74 4.0 8.0 0.00 0.09 0.06 60 1011.4
20260507182724 65 75 4.0 6.0 0.00 0.09 0.06 58 1011.5
20260507181803 66 74 4.0 6.0 0.00 0.09 0.06 56 1011.7
20260507180904 68 68 3.0 6.0 0.00 0.09 0.06 53 1011.3
20260507180003 70 55 1.0 3.0 0.00 0.09 0.06 49 1011.4
20260507175403 71 5 1.0 3.0 0.00 0.09 0.06 48 1011.3
20260507174524 71 302 1.0 4.0 0.00 0.09 0.06 48 1011.4
20260507173603 71 312 2.0 4.0 0.00 0.09 0.06 46 1011.2
20260507172706 71 269 2.0 3.0 0.00 0.09 0.06 44 1011.3
20260507171803 72 231 2.0 4.0 0.00 0.09 0.06 43 1011.1
20260507170903 72 230 2.0 4.0 0.00 0.09 0.06 42 1011.1
20260507170003 73 228 1.0 4.0 0.00 0.09 0.06 41 1011.1
20260507165403 72 249 2.0 4.0 0.00 0.09 0.06 43 1011.4
20260507164524 72 256 3.0 5.0 0.00 0.09 0.06 43 1011.1
20260507163603 73 236 2.0 4.0 0.00 0.09 0.06 42 1011.0
20260507162703 73 230 3.0 5.0 0.00 0.09 0.06 41 1010.9
20260507161803 71 281 3.0 5.0 0.00 0.09 0.06 43 1011.1
20260507160904 72 260 4.0 8.0 0.00 0.09 0.06 43 1011.1
20260507160003 71 277 4.0 9.0 0.00 0.09 0.06 41 1011.2
20260507155403 72 291 4.0 9.0 0.00 0.09 0.06 41 1011.1
20260507154510 72 312 3.0 6.0 0.00 0.09 0.06 38 1011.1
20260507153606 72 259 2.0 6.0 0.00 0.09 0.06 39 1011.0
20260507152703 71 285 3.0 8.0 0.00 0.09 0.06 38 1011.3
20260507151803 72 259 3.0 9.0 0.00 0.09 0.06 40 1011.1
20260507150903 72 256 3.0 9.0 0.00 0.09 0.06 40 1011.4
20260507150003 72 245 5.0 9.0 0.00 0.09 0.06 42 1011.3
20260507145424 72 256 5.0 10.0 0.00 0.09 0.06 43 1011.4
20260507144503 71 286 4.0 10.0 0.00 0.09 0.06 42 1011.4
20260507143603 71 270 5.0 13.0 0.00 0.09 0.06 42 1011.8
20260507142703 71 292 5.0 11.0 0.00 0.09 0.06 43 1011.8
20260507141803 71 259 5.0 11.0 0.00 0.09 0.06 44 1011.9
20260507140925 71 217 5.0 10.0 0.00 0.09 0.06 43 1012.0
20260507140003 70 240 5.0 10.0 0.00 0.09 0.06 45 1012.1
20260507135403 71 233 4.0 9.0 0.00 0.09 0.06 44 1012.1
20260507134505 71 224 4.0 7.0 0.00 0.09 0.06 43 1012.2
20260507133603 70 211 6.0 12.0 0.00 0.09 0.06 44 1012.3
20260507132703 71 219 6.0 12.0 0.00 0.09 0.06 42 1012.3
20260507131803 71 209 4.0 10.0 0.00 0.09 0.06 40 1012.3
20260507130903 70 210 5.0 10.0 0.00 0.09 0.06 44 1012.4
20260507130003 71 204 4.0 9.0 0.00 0.09 0.06 42 1012.4
20260507125408 70 201 3.0 7.0 0.00 0.09 0.06 43 1012.5
20260507124524 70 222 4.0 9.0 0.00 0.09 0.06 44 1012.5
20260507123603 71 180 4.0 12.0 0.00 0.09 0.06 43 1012.4
20260507122705 70 174 6.0 11.0 0.00 0.09 0.06 45 1012.6
20260507121803 71 183 6.0 9.0 0.00 0.09 0.06 46 1012.6
20260507120903 69 225 4.0 7.0 0.00 0.09 0.06 51 1012.7
20260507120003 71 129 2.0 6.0 0.00 0.09 0.06 50 1012.9
20260507115403 69 136 4.0 9.0 0.00 0.09 0.06 51 1012.8
20260507114524 69 142 5.0 10.0 0.00 0.09 0.06 51 1012.9
20260507113603 68 246 4.0 11.0 0.00 0.09 0.06 51 1012.7
20260507112703 70 187 3.0 7.0 0.00 0.09 0.06 52 1012.8
20260507111804 67 249 3.0 9.0 0.00 0.09 0.06 56 1012.9
20260507110903 68 277 2.0 8.0 0.00 0.09 0.06 57 1013.1
20260507110003 68 129 2.0 5.0 0.00 0.09 0.06 56 1012.9
20260507105404 66 196 3.0 6.0 0.00 0.09 0.06 58 1013.2
20260507104503 67 114 3.0 6.0 0.00 0.09 0.06 59 1013.0
20260507103606 66 57 3.0 6.0 0.00 0.09 0.06 59 1013.2
20260507102704 66 227 3.0 6.0 0.00 0.09 0.06 61 1013.4
20260507101803 65 238 5.0 11.0 0.00 0.09 0.06 63 1013.6
20260507100903 65 240 5.0 12.0 0.00 0.09 0.06 67 1013.4
20260507100003 64 289 2.0 7.0 0.00 0.09 0.06 64 1013.3
20260507095403 65 254 3.0 8.0 0.00 0.09 0.06 66 1013.4
20260507094503 67 182 4.0 8.0 0.00 0.09 0.06 63 1013.5
20260507093603 67 200 4.0 7.0 0.00 0.09 0.06 64 1013.6
20260507092706 67 143 3.0 6.0 0.00 0.09 0.06 61 1013.6
20260507091803 66 99 3.0 6.0 0.00 0.09 0.06 65 1013.7
20260507090903 65 112 3.0 5.0 0.00 0.09 0.06 66 1013.6
20260507090004 62 145 3.0 8.0 0.00 0.09 0.06 70 1013.7
20260507085406 63 79 3.0 7.0 0.00 0.09 0.06 71 1013.7
20260507084505 64 109 4.0 8.0 0.00 0.09 0.06 69 1013.7
20260507083603 64 131 4.0 7.0 0.00 0.09 0.06 69 1013.3
20260507082703 61 167 2.0 6.0 0.00 0.09 0.06 72 1013.7
20260507081803 63 146 5.0 10.0 0.00 0.09 0.06 72 1013.7
20260507080903 63 173 3.0 6.0 0.00 0.09 0.06 70 1013.8
20260507080003 63 160 4.0 6.0 0.00 0.09 0.06 71 1013.7
20260507075403 62 145 4.0 8.0 0.00 0.09 0.06 73 1013.7
20260507074503 62 134 4.0 8.0 0.00 0.09 0.06 74 1013.7
20260507073603 60 146 5.0 8.0 0.00 0.09 0.06 77 1013.9
20260507072718 58 163 4.0 8.0 0.00 0.09 0.06 81 1013.9
20260507071803 59 160 5.0 9.0 0.00 0.09 0.06 83 1013.5
20260507070903 59 148 4.0 7.0 0.00 0.09 0.06 84 1013.7
20260507070005 59 149 4.0 10.0 0.00 0.09 0.06 83 1013.9
20260507065403 59 143 5.0 9.0 0.00 0.09 0.06 82 1013.7
20260507064504 59 145 4.0 8.0 0.00 0.09 0.06 82 1013.7
20260507063606 59 155 3.0 6.0 0.00 0.09 0.06 81 1013.5
20260507062704 59 150 3.0 5.0 0.00 0.10 0.06 82 1013.6
20260507061804 58 137 3.0 6.0 0.00 0.10 0.06 87 1013.5
20260507060905 57 91 3.0 4.0 0.00 0.11 0.06 88 1013.5
20260507060003 57 89 3.0 5.0 0.00 0.11 0.06 88 1013.4
20260507055403 57 90 3.0 5.0 0.00 0.11 0.06 88 1013.4
20260507054505 57 103 3.0 5.0 0.00 0.12 0.06 89 1013.6
20260507053603 57 123 5.0 8.0 0.00 0.12 0.06 89 1013.3
20260507052704 57 140 5.0 7.0 0.00 0.13 0.06 90 1013.2
20260507051824 56 108 4.0 7.0 0.00 0.13 0.06 90 1013.3
20260507050903 56 117 3.0 5.0 0.00 0.13 0.06 93 1013.2
20260507050024 56 130 2.0 3.0 0.00 0.13 0.06 92 1013.3
20260507045403 56 162 2.0 4.0 0.00 0.13 0.06 93 1013.2
20260507044504 56 155 2.0 3.0 0.00 0.14 0.06 93 1013.0
20260507043603 56 139 2.0 3.0 0.00 0.15 0.06 93 1012.9
20260507042703 56 137 2.0 4.0 0.00 0.15 0.06 92 1013.0
20260507041803 56 136 4.0 6.0 0.00 0.16 0.06 92 1012.8
20260507040903 57 118 3.0 6.0 0.00 0.15 0.06 92 1012.8
20260507040003 57 96 3.0 6.0 0.00 0.15 0.06 92 1012.8
20260507035403 56 91 2.0 4.0 0.00 0.15 0.06 91 1012.7
20260507034503 56 176 2.0 4.0 0.00 0.15 0.06 91 1012.6
20260507033606 56 152 4.0 7.0 0.00 0.15 0.06 91 1012.5
20260507032703 57 136 5.0 7.0 0.01 0.15 0.06 91 1012.3
20260507031803 57 139 4.0 6.0 0.01 0.15 0.06 90 1012.4
20260507030924 57 155 4.0 6.0 0.01 0.15 0.06 90 1012.6
20260507030003 57 182 3.0 6.0 0.01 0.15 0.06 90 1012.8
20260507025404 57 157 4.0 7.0 0.01 0.15 0.06 90 1012.7
20260507024503 57 147 5.0 7.0 0.00 0.15 0.06 89 1012.5
20260507023603 57 151 5.0 9.0 0.01 0.15 0.06 89 1012.6
20260507022703 57 149 4.0 9.0 0.01 0.15 0.05 90 1012.6
20260507021804 57 149 2.0 4.0 0.01 0.15 0.05 91 1012.5
20260507020903 57 158 2.0 3.0 0.01 0.15 0.05 91 1012.7
20260507020024 57 135 2.0 4.0 0.01 0.15 0.05 90 1012.3
20260507015403 57 116 2.0 5.0 0.01 0.18 0.05 90 1012.4
20260507014503 58 118 4.0 9.0 0.02 0.18 0.05 90 1012.3
20260507013606 58 128 5.0 8.0 0.01 0.17 0.05 90 1012.2
20260507012703 58 129 5.0 9.0 0.01 0.17 0.04 90 1012.3
20260507011805 58 124 4.0 7.0 0.00 0.17 0.04 89 1012.6
20260507010904 58 141 5.0 8.0 0.00 0.17 0.04 89 1012.6
20260507010003 58 147 5.0 8.0 0.00 0.17 0.04 89 1012.5
20260507005403 58 152 4.0 6.0 0.00 0.17 0.04 89 1012.4
20260507004503 58 124 5.0 9.0 0.00 0.16 0.04 89 1012.5
20260507003618 58 100 4.0 9.0 0.00 0.16 0.04 89 1012.4
20260507002705 58 117 4.0 6.0 0.00 0.16 0.04 89 1012.2
20260507001824 58 140 4.0 7.0 0.01 0.16 0.04 90 1012.6
20260507000924 58 153 4.0 7.0 0.01 0.16 0.04 90 1012.4
20260507000003 58 172 3.0 6.0 0.02 0.16 0.04 88 1012.4
20260506235403 58 157 4.0 9.0 0.02 0.16 0.04 88 1012.7
20260506234503 58 136 4.0 8.0 0.02 0.16 0.04 88 1012.7
20260506233603 58 128 4.0 7.0 0.02 0.16 0.04 88 1012.6
20260506232703 58 143 4.0 9.0 0.02 0.16 0.03 88 1012.6
20260506231804 58 132 5.0 9.0 0.02 0.15 0.03 90 1012.6
20260506230903 58 111 5.0 7.0 0.02 0.15 0.02 89 1012.9
20260506230003 59 104 4.0 6.0 0.02 0.15 0.02 88 1012.7
20260506225403 59 101 2.0 4.0 0.02 0.15 0.02 86 1013.1
20260506224503 59 117 3.0 6.0 0.03 0.15 0.02 84 1012.7
20260506223603 59 124 4.0 6.0 0.04 0.15 0.02 83 1012.6
20260506222703 59 109 4.0 6.0 0.04 0.14 0.01 82 1012.8
20260506221803 59 109 4.0 6.0 0.04 0.14 0.01 83 1012.8
20260506220914 59 116 3.0 4.0 0.03 0.13 0.01 82 1012.7